Location: Unspecified
(0.0000°N, 0.0000°E)
Time: 14:16:04
(UTC+00:00)

JUGNU - Pass Details

Date: 14 December 2017
Orbit: 837 x 864 km, 20.0° (Epoch: 21 April)

Event Time Altitude Azimuth Distance (km) Brightness Sun altitude
Rises 19:25:46 0° 224° (SW) 3,404 ? -20.8°
Reaches altitude 10° 19:29:37 10° 201° (SSW) 2,462 ? -21.6°
Maximum altitude 19:32:44 14° 168° (SSE) 2,154 ? -22.4°
Drops below altitude 10° 19:35:50 10° 136° (SE) 2,451 ? -23.1°
Enters shadow 19:35:53 10° 136° (SE) 2,460 ? -23.1°
